Location: Krakow
(50.0830°N, 19.9170°E)
Time: 06:32:05
(UTC+02:00)

Tiros 1 despin weight - Pass Details

Date: 16 March 2026
Orbit: 555 x 592 km, 48.2° (Epoch: 18 April)

Event Time Altitude Azimuth Distance (km) Brightness Sun altitude
Rises 05:48:32 0° 245° (WSW) 2,811 ? -1.4°
Reaches altitude 10° 05:50:52 10° 240° (WSW) 1,908 ? -1.0°
Maximum altitude 05:55:07 53° 164° (SSE) 718 ? -0.4°
Drops below altitude 10° 05:59:21 10° 88° (E) 1,892 ? 0.3°
Sets 06:01:38 0° 83° (E) 2,786 ? 0.7°
